Time,TemperatureF,DewpointF,PressureIn,WindDirection,WindDirectionDegrees,WindSpeedMPH,WindSpeedGustMPH,Humidity,HourlyPrecipIn,Conditions,Clouds,dailyrainin,SoftwareType,DateUTC
2013-08-26 00:00:00,66.4,54.7,30.23,West,271,3.0,6.0,66,0.00,,CLR,0.00,VWS V14.01,2013-08-26 04:00:00,
2013-08-26 00:01:00,66.4,54.7,30.23,SW,225,0.0,4.0,66,0.00,,CLR,0.00,VWS V14.01,2013-08-26 04:01:00,
2013-08-26 00:02:00,66.4,54.7,30.23,South,178,3.0,5.0,66,0.00,,CLR,0.00,VWS V14.01,2013-08-26 04:02:00,
2013-08-26 00:07:00,66.3,55.0,30.23,WSW,242,1.0,4.0,67,0.00,,CLR,0.00,VWS V14.01,2013-08-26 04:07:00,
2013-08-26 00:12:00,66.2,54.9,30.23,SSW,200,0.0,4.0,67,0.00,,CLR,0.00,VWS V14.01,2013-08-26 04:12:00,
2013-08-26 00:17:00,66.0,54.7,30.23,WNW,289,0.0,2.0,67,0.00,,CLR,0.00,VWS V14.01,2013-08-26 04:17:00,
2013-08-26 00:22:00,65.8,55.0,30.22,WNW,283,0.0,1.0,68,0.00,,CLR,0.00,VWS V14.01,2013-08-26 04:22:00,
2013-08-26 00:27:00,65.8,55.0,30.22,WSW,249,0.0,2.0,68,0.00,,CLR,0.00,VWS V14.01,2013-08-26 04:27:00,
2013-08-26 00:32:00,65.7,54.9,30.22,West,274,0.0,1.0,68,0.00,,CLR,0.00,VWS V14.01,2013-08-26 04:32:00,
2013-08-26 00:37:00,65.5,54.7,30.22,West,267,0.0,0.0,68,0.00,,CLR,0.00,VWS V14.01,2013-08-26 04:37:00,
2013-08-26 00:43:00,65.2,54.8,30.23,WNW,301,0.0,0.0,69,0.00,,CLR,0.00,VWS V14.01,2013-08-26 04:43:00,
2013-08-26 00:48:00,64.9,54.9,30.22,WNW,299,0.0,0.0,70,0.00,,CLR,0.00,VWS V14.01,2013-08-26 04:48:00,
2013-08-26 00:53:00,64.8,55.2,30.22,SSE,157,0.0,0.0,71,0.00,,CLR,0.00,VWS V14.01,2013-08-26 04:53:00,
2013-08-26 00:58:00,64.9,54.9,30.22,West,280,0.0,2.0,70,0.00,,CLR,0.00,VWS V14.01,2013-08-26 04:58:00,
2013-08-26 01:03:00,65.2,55.2,30.22,SW,236,0.0,1.0,70,0.00,,CLR,0.00,VWS V14.01,2013-08-26 05:03:00,
2013-08-26 01:08:00,65.2,55.2,30.22,SW,236,0.0,0.0,70,0.00,,CLR,0.00,VWS V14.01,2013-08-26 05:08:00,
2013-08-26 01:13:00,65.1,55.5,30.22,SW,236,0.0,0.0,71,0.00,,CLR,0.00,VWS V14.01,2013-08-26 05:13:00,
2013-08-26 01:18:00,64.9,55.3,30.22,SW,231,0.0,0.0,71,0.00,,CLR,0.00,VWS V14.01,2013-08-26 05:18:00,
2013-08-26 01:23:00,64.9,55.7,30.22,SW,226,0.0,0.0,72,0.00,,CLR,0.00,VWS V14.01,2013-08-26 05:23:00,
2013-08-26 01:28:00,65.0,55.4,30.22,SW,231,0.0,0.0,71,0.00,,CLR,0.00,VWS V14.01,2013-08-26 05:28:00,
2013-08-26 01:34:00,65.1,55.5,30.22,SW,232,0.0,0.0,71,0.00,,CLR,0.00,VWS V14.01,2013-08-26 05:34:00,
2013-08-26 01:39:00,65.1,56.2,30.22,SW,233,0.0,0.0,73,0.00,,CLR,0.00,VWS V14.01,2013-08-26 05:39:00,
2013-08-26 01:44:00,65.0,55.8,30.22,WSW,257,1.0,1.0,72,0.00,,CLR,0.00,VWS V14.01,2013-08-26 05:44:00,
2013-08-26 01:49:00,65.1,55.9,30.22,SW,229,0.0,1.0,72,0.00,,CLR,0.00,VWS V14.01,2013-08-26 05:49:00,
2013-08-26 01:54:00,65.2,56.0,30.21,South,184,0.0,0.0,72,0.00,,CLR,0.00,VWS V14.01,2013-08-26 05:54:00,
2013-08-26 01:59:00,65.4,55.8,30.21,SW,232,0.0,1.0,71,0.00,,CLR,0.00,VWS V14.01,2013-08-26 05:59:00,
2013-08-26 02:04:00,65.3,56.0,30.21,SE,142,0.0,0.0,72,0.00,,CLR,0.00,VWS V14.01,2013-08-26 06:04:00,
2013-08-26 02:09:00,65.3,55.7,30.21,West,276,0.0,1.0,71,0.00,,CLR,0.00,VWS V14.01,2013-08-26 06:09:00,
2013-08-26 02:14:00,65.7,55.7,30.21,West,269,0.0,0.0,70,0.00,,CLR,0.00,VWS V14.01,2013-08-26 06:14:00,
2013-08-26 02:19:00,65.9,55.8,30.22,West,260,0.0,2.0,70,0.00,,CLR,0.00,VWS V14.01,2013-08-26 06:19:00,
2013-08-26 02:25:00,66.0,56.0,30.22,SW,224,0.0,2.0,70,0.00,,CLR,0.00,VWS V14.01,2013-08-26 06:25:00,
2013-08-26 02:30:00,66.1,56.0,30.21,South,171,1.0,2.0,70,0.00,,CLR,0.00,VWS V14.01,2013-08-26 06:30:00,
2013-08-26 02:35:00,66.0,56.3,30.21,SSE,166,0.0,1.0,71,0.00,,CLR,0.00,VWS V14.01,2013-08-26 06:35:00,
2013-08-26 02:40:00,65.7,56.0,30.21,SSW,212,0.0,0.0,71,0.00,,CLR,0.00,VWS V14.01,2013-08-26 06:40:00,
2013-08-26 02:45:00,65.7,56.0,30.21,SW,221,0.0,1.0,71,0.00,,CLR,0.00,VWS V14.01,2013-08-26 06:45:00,
2013-08-26 02:50:00,65.5,56.2,30.21,SSE,162,0.0,0.0,72,0.00,,CLR,0.00,VWS V14.01,2013-08-26 06:50:00,
2013-08-26 02:55:00,65.4,56.2,30.20,SSE,160,1.0,1.0,72,0.00,,CLR,0.00,VWS V14.01,2013-08-26 06:55:00,
2013-08-26 03:00:00,65.4,56.2,30.20,South,174,0.0,1.0,72,0.00,,CLR,0.00,VWS V14.01,2013-08-26 07:00:00,
2013-08-26 03:05:00,65.4,56.2,30.20,South,177,0.0,1.0,72,0.00,,CLR,0.00,VWS V14.01,2013-08-26 07:05:00,
2013-08-26 03:10:00,65.5,56.2,30.19,SW,215,0.0,2.0,72,0.00,,CLR,0.00,VWS V14.01,2013-08-26 07:10:00,
2013-08-26 03:15:00,65.5,56.2,30.19,SSW,207,0.0,0.0,72,0.00,,CLR,0.00,VWS V14.01,2013-08-26 07:15:00,
2013-08-26 03:20:00,65.6,56.3,30.19,WSW,250,0.0,2.0,72,0.00,,CLR,0.00,VWS V14.01,2013-08-26 07:20:00,
2013-08-26 03:25:00,65.6,56.3,30.19,SW,224,0.0,1.0,72,0.00,,CLR,0.00,VWS V14.01,2013-08-26 07:25:00,
2013-08-26 03:30:00,65.5,56.2,30.18,South,179,1.0,5.0,72,0.00,,CLR,0.00,VWS V14.01,2013-08-26 07:30:00,
2013-08-26 03:35:00,65.4,56.2,30.18,WSW,237,5.0,5.0,72,0.00,,CLR,0.00,VWS V14.01,2013-08-26 07:35:00,
2013-08-26 03:40:00,65.4,56.2,30.18,West,274,6.0,7.0,72,0.00,,CLR,0.00,VWS V14.01,2013-08-26 07:40:00,
2013-08-26 03:46:00,65.3,56.0,30.18,SSW,212,0.0,6.0,72,0.00,,CLR,0.00,VWS V14.01,2013-08-26 07:46:00,
2013-08-26 03:51:00,65.1,56.2,30.17,SSW,198,0.0,4.0,73,0.00,,CLR,0.00,VWS V14.01,2013-08-26 07:51:00,
2013-08-26 03:56:00,64.9,56.0,30.18,SSE,167,1.0,3.0,73,0.00,,CLR,0.00,VWS V14.01,2013-08-26 07:56:00,
2013-08-26 04:01:00,64.7,56.2,30.17,South,173,1.0,1.0,74,0.00,,CLR,0.00,VWS V14.01,2013-08-26 08:01:00,
2013-08-26 04:06:00,64.4,55.9,30.18,South,187,2.0,4.0,74,0.00,,CLR,0.00,VWS V14.01,2013-08-26 08:06:00,
2013-08-26 04:11:00,64.3,55.8,30.17,SW,221,0.0,3.0,74,0.00,,CLR,0.00,VWS V14.01,2013-08-26 08:11:00,
2013-08-26 04:16:00,64.1,56.0,30.17,SE,143,0.0,1.0,75,0.00,,CLR,0.00,VWS V14.01,2013-08-26 08:16:00,
2013-08-26 04:21:00,63.9,55.8,30.17,South,177,0.0,2.0,75,0.00,,CLR,0.00,VWS V14.01,2013-08-26 08:21:00,
2013-08-26 04:26:00,63.7,56.0,30.17,South,191,0.0,2.0,76,0.00,,CLR,0.00,VWS V14.01,2013-08-26 08:26:00,
2013-08-26 04:31:00,63.5,55.8,30.17,SE,125,0.0,1.0,76,0.00,,CLR,0.00,VWS V14.01,2013-08-26 08:31:00,
2013-08-26 04:36:00,63.1,55.8,30.17,SE,139,0.0,0.0,77,0.00,,CLR,0.00,VWS V14.01,2013-08-26 08:36:00,
2013-08-26 04:41:00,62.8,55.8,30.17,SE,145,0.0,1.0,78,0.00,,CLR,0.00,VWS V14.01,2013-08-26 08:41:00,
2013-08-26 04:47:00,62.5,55.9,30.17,SE,139,0.0,1.0,79,0.00,,CLR,0.00,VWS V14.01,2013-08-26 08:47:00,
2013-08-26 04:52:00,62.2,55.6,30.17,ESE,115,0.0,1.0,79,0.00,,CLR,0.00,VWS V14.01,2013-08-26 08:52:00,
2013-08-26 04:57:00,62.1,55.9,30.18,ESE,114,0.0,1.0,80,0.00,,CLR,0.00,VWS V14.01,2013-08-26 08:57:00,
2013-08-26 05:02:00,62.1,55.9,30.17,SE,127,0.0,1.0,80,0.00,,CLR,0.00,VWS V14.01,2013-08-26 09:02:00,
2013-08-26 05:07:00,62.2,56.0,30.18,SE,142,0.0,1.0,80,0.00,,CLR,0.00,VWS V14.01,2013-08-26 09:07:00,
2013-08-26 05:12:00,62.4,55.8,30.17,SE,143,0.0,1.0,79,0.00,,CLR,0.00,VWS V14.01,2013-08-26 09:12:00,
2013-08-26 05:17:00,61.5,55.6,30.17,SE,128,0.0,1.0,81,0.00,,CLR,0.00,VWS V14.01,2013-08-26 09:17:00,
2013-08-26 05:22:00,60.4,55.5,30.17,ESE,110,0.0,1.0,84,0.00,,CLR,0.00,VWS V14.01,2013-08-26 09:22:00,
2013-08-26 05:27:00,60.4,55.9,30.17,ESE,120,0.0,1.0,85,0.00,,CLR,0.00,VWS V14.01,2013-08-26 09:27:00,
2013-08-26 05:32:00,60.5,55.7,30.17,SE,125,0.0,0.0,84,0.00,,CLR,0.00,VWS V14.01,2013-08-26 09:32:00,
2013-08-26 05:37:00,60.4,55.9,30.17,ESE,113,0.0,0.0,85,0.00,,CLR,0.00,VWS V14.01,2013-08-26 09:37:00,
2013-08-26 05:42:00,60.2,55.7,30.17,ESE,113,0.0,0.0,85,0.00,,CLR,0.00,VWS V14.01,2013-08-26 09:42:00,
2013-08-26 05:48:00,60.4,55.9,30.18,ESE,110,0.0,0.0,85,0.00,,CLR,0.00,VWS V14.01,2013-08-26 09:48:00,
2013-08-26 05:53:00,60.9,56.0,30.18,ESE,113,0.0,0.0,84,0.00,,CLR,0.00,VWS V14.01,2013-08-26 09:53:00,
2013-08-26 05:58:00,60.7,55.8,30.18,ESE,113,0.0,0.0,84,0.00,,CLR,0.00,VWS V14.01,2013-08-26 09:58:00,
2013-08-26 06:03:00,60.6,56.1,30.18,ESE,113,0.0,0.0,85,0.00,,CLR,0.00,VWS V14.01,2013-08-26 10:03:00,
2013-08-26 06:08:00,60.4,55.9,30.18,ESE,113,0.0,0.0,85,0.00,,CLR,0.00,VWS V14.01,2013-08-26 10:08:00,
2013-08-26 06:13:00,59.8,55.9,30.19,SE,129,0.0,0.0,87,0.00,,CLR,0.00,VWS V14.01,2013-08-26 10:13:00,
2013-08-26 06:18:00,59.7,56.2,30.19,SE,134,0.0,0.0,88,0.00,,CLR,0.00,VWS V14.01,2013-08-26 10:18:00,
2013-08-26 06:23:00,59.5,56.0,30.18,SE,132,0.0,0.0,88,0.00,,CLR,0.00,VWS V14.01,2013-08-26 10:23:00,
2013-08-26 06:28:00,59.5,56.3,30.19,ESE,115,0.0,0.0,89,0.00,,CLR,0.00,VWS V14.01,2013-08-26 10:28:00,
2013-08-26 06:33:00,59.5,56.6,30.19,ESE,107,0.0,1.0,90,0.00,,CLR,0.00,VWS V14.01,2013-08-26 10:33:00,
2013-08-26 06:38:00,59.6,56.7,30.18,SE,124,0.0,0.0,90,0.00,,CLR,0.00,VWS V14.01,2013-08-26 10:38:00,
2013-08-26 06:43:00,59.9,57.0,30.18,SE,145,0.0,1.0,90,0.00,,CLR,0.00,VWS V14.01,2013-08-26 10:43:00,
2013-08-26 06:48:00,60.5,56.9,30.18,South,188,0.0,1.0,88,0.00,,CLR,0.00,VWS V14.01,2013-08-26 10:48:00,
2013-08-26 06:54:00,61.2,57.0,30.19,SSE,150,0.0,0.0,86,0.00,,CLR,0.00,VWS V14.01,2013-08-26 10:54:00,
2013-08-26 06:59:00,61.6,57.0,30.18,SSE,149,1.0,1.0,85,0.00,,CLR,0.00,VWS V14.01,2013-08-26 10:59:00,
2013-08-26 07:04:00,62.0,57.1,30.18,SE,145,0.0,2.0,84,0.00,,CLR,0.00,VWS V14.01,2013-08-26 11:04:00,
2013-08-26 07:09:00,62.2,57.3,30.19,SE,145,0.0,2.0,84,0.00,,CLR,0.00,VWS V14.01,2013-08-26 11:09:00,
2013-08-26 07:14:00,62.4,57.5,30.18,SW,218,0.0,1.0,84,0.00,,CLR,0.00,VWS V14.01,2013-08-26 11:14:00,
2013-08-26 07:19:00,62.6,57.4,30.18,SSE,155,0.0,1.0,83,0.00,,CLR,0.00,VWS V14.01,2013-08-26 11:19:00,
2013-08-26 07:24:00,62.7,57.5,30.18,SE,141,0.0,1.0,83,0.00,,CLR,0.00,VWS V14.01,2013-08-26 11:24:00,
2013-08-26 07:29:00,62.8,57.6,30.18,SSE,165,1.0,1.0,83,0.00,,CLR,0.00,VWS V14.01,2013-08-26 11:29:00,
2013-08-26 07:34:00,63.2,58.0,30.18,SSE,163,0.0,1.0,83,0.00,,CLR,0.00,VWS V14.01,2013-08-26 11:34:00,
2013-08-26 07:39:00,63.5,58.2,30.18,SE,139,0.0,2.0,83,0.00,,CLR,0.00,VWS V14.01,2013-08-26 11:39:00,
2013-08-26 07:44:00,63.8,58.5,30.18,SSE,152,0.0,2.0,83,0.00,,CLR,0.00,VWS V14.01,2013-08-26 11:44:00,
2013-08-26 07:49:00,63.9,58.6,30.18,SSE,166,0.0,1.0,83,0.00,,CLR,0.00,VWS V14.01,2013-08-26 11:49:00,
2013-08-26 07:54:00,64.0,58.7,30.18,South,172,1.0,1.0,83,0.00,,CLR,0.00,VWS V14.01,2013-08-26 11:54:00,
2013-08-26 08:00:00,64.0,58.7,30.18,SW,236,0.0,1.0,83,0.00,,CLR,0.00,VWS V14.01,2013-08-26 12:00:00,
2013-08-26 08:05:00,63.9,58.6,30.19,WSW,242,0.0,1.0,83,0.00,,CLR,0.00,VWS V14.01,2013-08-26 12:05:00,
2013-08-26 08:10:00,64.0,59.1,30.19,WSW,248,0.0,1.0,84,0.00,,CLR,0.00,VWS V14.01,2013-08-26 12:10:00,
2013-08-26 08:15:00,64.1,59.2,30.18,SW,233,0.0,0.0,84,0.00,,CLR,0.00,VWS V14.01,2013-08-26 12:15:00,
2013-08-26 08:20:00,64.2,59.3,30.18,SW,228,1.0,1.0,84,0.00,,CLR,0.00,VWS V14.01,2013-08-26 12:20:00,
2013-08-26 08:25:00,64.3,59.7,30.18,SW,229,0.0,0.0,85,0.00,,CLR,0.00,VWS V14.01,2013-08-26 12:25:00,
2013-08-26 08:30:00,64.7,59.8,30.17,SSW,200,0.0,0.0,84,0.00,,CLR,0.00,VWS V14.01,2013-08-26 12:30:00,
2013-08-26 08:35:00,65.5,60.9,30.17,South,191,1.0,1.0,85,0.00,,CLR,0.00,VWS V14.01,2013-08-26 12:35:00,
2013-08-26 08:40:00,66.2,60.5,30.17,SSW,212,0.0,1.0,82,0.00,,CLR,0.00,VWS V14.01,2013-08-26 12:40:00,
2013-08-26 08:45:00,66.7,61.0,30.18,SE,139,0.0,0.0,82,0.00,,CLR,0.00,VWS V14.01,2013-08-26 12:45:00,
2013-08-26 08:50:00,67.9,61.5,30.18,South,190,0.0,0.0,80,0.00,,CLR,0.00,VWS V14.01,2013-08-26 12:50:00,
2013-08-26 08:55:00,69.0,61.9,30.19,ESE,117,0.0,0.0,78,0.00,,CLR,0.00,VWS V14.01,2013-08-26 12:55:00,
2013-08-26 09:00:00,70.1,62.9,30.19,East,99,0.0,0.0,78,0.00,,CLR,0.00,VWS V14.01,2013-08-26 13:00:00,
2013-08-26 09:05:00,69.8,61.9,30.18,SW,228,0.0,1.0,76,0.00,,CLR,0.00,VWS V14.01,2013-08-26 13:05:00,
2013-08-26 09:10:00,69.2,62.1,30.17,WSW,257,0.0,1.0,78,0.00,,CLR,0.00,VWS V14.01,2013-08-26 13:10:00,
2013-08-26 09:16:00,69.4,62.6,30.17,SW,228,0.0,0.0,79,0.00,,CLR,0.00,VWS V14.01,2013-08-26 13:16:00,
2013-08-26 09:21:00,69.5,62.3,30.17,WSW,248,0.0,1.0,78,0.00,,CLR,0.00,VWS V14.01,2013-08-26 13:21:00,
2013-08-26 09:26:00,69.3,62.5,30.17,SSW,208,0.0,1.0,79,0.00,,CLR,0.00,VWS V14.01,2013-08-26 13:26:00,
2013-08-26 09:31:00,69.3,62.5,30.17,SW,224,0.0,1.0,79,0.00,,CLR,0.00,VWS V14.01,2013-08-26 13:31:00,
2013-08-26 09:36:00,69.2,62.8,30.17,WSW,248,1.0,2.0,80,0.00,,CLR,0.00,VWS V14.01,2013-08-26 13:36:00,
2013-08-26 09:41:00,68.9,62.5,30.17,SW,236,3.0,3.0,80,0.00,,CLR,0.00,VWS V14.01,2013-08-26 13:41:00,
2013-08-26 09:46:00,69.4,63.3,30.17,West,271,0.0,1.0,81,0.00,,CLR,0.00,VWS V14.01,2013-08-26 13:46:00,
2013-08-26 09:51:00,70.2,64.1,30.17,WSW,246,4.0,4.0,81,0.00,,CLR,0.00,VWS V14.01,2013-08-26 13:51:00,
2013-08-26 09:56:00,70.5,63.7,30.17,West,262,1.0,2.0,79,0.00,,CLR,0.00,VWS V14.01,2013-08-26 13:56:00,
2013-08-26 10:01:00,70.7,63.9,30.17,West,259,0.0,2.0,79,0.00,,CLR,0.00,VWS V14.01,2013-08-26 14:01:00,
2013-08-26 10:06:00,71.0,64.2,30.17,West,270,0.0,0.0,79,0.00,,CLR,0.00,VWS V14.01,2013-08-26 14:06:00,
2013-08-26 10:11:00,72.1,64.9,30.16,SW,221,0.0,1.0,78,0.00,,CLR,0.00,VWS V14.01,2013-08-26 14:11:00,
2013-08-26 10:17:00,72.6,64.6,30.16,West,269,0.0,2.0,76,0.00,,CLR,0.00,VWS V14.01,2013-08-26 14:17:00,
2013-08-26 10:22:00,73.1,65.5,30.16,WSW,245,0.0,2.0,77,0.00,,CLR,0.00,VWS V14.01,2013-08-26 14:22:00,
2013-08-26 10:27:00,73.6,65.2,30.16,SSW,205,0.0,2.0,75,0.00,,CLR,0.00,VWS V14.01,2013-08-26 14:27:00,
2013-08-26 10:32:00,74.0,65.6,30.16,SW,232,1.0,4.0,75,0.00,,CLR,0.00,VWS V14.01,2013-08-26 14:32:00,
2013-08-26 10:37:00,74.2,65.4,30.15,WNW,298,0.0,3.0,74,0.00,,CLR,0.00,VWS V14.01,2013-08-26 14:37:00,
2013-08-26 10:42:00,75.0,65.8,30.15,WSW,248,0.0,2.0,73,0.00,,CLR,0.00,VWS V14.01,2013-08-26 14:42:00,
2013-08-26 10:47:00,75.5,66.2,30.15,West,281,2.0,2.0,73,0.00,,CLR,0.00,VWS V14.01,2013-08-26 14:47:00,
2013-08-26 10:52:00,75.9,66.2,30.14,West,259,2.0,3.0,72,0.00,,CLR,0.00,VWS V14.01,2013-08-26 14:52:00,
2013-08-26 10:57:00,76.5,66.4,30.14,West,267,2.0,2.0,71,0.00,,CLR,0.00,VWS V14.01,2013-08-26 14:57:00,
2013-08-26 11:02:00,76.9,66.8,30.14,West,280,1.0,6.0,71,0.00,,CLR,0.00,VWS V14.01,2013-08-26 15:02:00,
2013-08-26 11:07:00,77.1,66.6,30.14,West,261,1.0,3.0,70,0.00,,CLR,0.00,VWS V14.01,2013-08-26 15:07:00,
2013-08-26 11:12:00,77.7,67.1,30.13,SW,224,1.0,3.0,70,0.00,,CLR,0.00,VWS V14.01,2013-08-26 15:12:00,
2013-08-26 11:17:00,77.8,66.0,30.13,WSW,257,4.0,5.0,67,0.00,,CLR,0.00,VWS V14.01,2013-08-26 15:17:00,
2013-08-26 11:23:00,77.9,65.2,30.12,West,276,2.0,8.0,65,0.00,,CLR,0.00,VWS V14.01,2013-08-26 15:23:00,
2013-08-26 11:28:00,78.1,65.4,30.12,West,259,1.0,5.0,65,0.00,,CLR,0.00,VWS V14.01,2013-08-26 15:28:00,
2013-08-26 11:33:00,78.0,65.3,30.12,WSW,244,2.0,6.0,65,0.00,,CLR,0.00,VWS V14.01,2013-08-26 15:33:00,
2013-08-26 11:38:00,78.3,65.1,30.12,WSW,248,4.0,4.0,64,0.00,,CLR,0.00,VWS V14.01,2013-08-26 15:38:00,
2013-08-26 11:43:00,78.7,66.8,30.12,WNW,284,1.0,5.0,67,0.00,,CLR,0.00,VWS V14.01,2013-08-26 15:43:00,
2013-08-26 11:48:00,79.1,66.3,30.12,WNW,302,1.0,9.0,65,0.00,,CLR,0.00,VWS V14.01,2013-08-26 15:48:00,
2013-08-26 11:53:00,78.7,66.0,30.12,West,263,5.0,8.0,65,0.00,,CLR,0.00,VWS V14.01,2013-08-26 15:53:00,
2013-08-26 11:58:00,77.8,65.1,30.12,West,278,3.0,8.0,65,0.00,,CLR,0.00,VWS V14.01,2013-08-26 15:58:00,
2013-08-26 12:03:00,77.3,65.9,30.12,West,269,2.0,6.0,68,0.00,,CLR,0.00,VWS V14.01,2013-08-26 16:03:00,
2013-08-26 12:08:00,77.0,65.2,30.12,NW,307,2.0,8.0,67,0.00,,CLR,0.00,VWS V14.01,2013-08-26 16:08:00,
2013-08-26 12:13:00,77.0,65.6,30.12,WSW,255,3.0,6.0,68,0.00,,CLR,0.00,VWS V14.01,2013-08-26 16:13:00,
2013-08-26 12:18:00,77.2,66.2,30.12,West,260,2.0,4.0,69,0.00,,CLR,0.00,VWS V14.01,2013-08-26 16:18:00,
2013-08-26 12:23:00,77.4,65.6,30.11,West,263,2.0,8.0,67,0.00,,CLR,0.00,VWS V14.01,2013-08-26 16:23:00,
2013-08-26 12:29:00,77.3,65.5,30.11,West,271,3.0,10.0,67,0.00,,CLR,0.00,VWS V14.01,2013-08-26 16:29:00,
2013-08-26 12:34:00,77.7,67.1,30.10,WNW,295,3.0,6.0,70,0.00,,CLR,0.00,VWS V14.01,2013-08-26 16:34:00,
2013-08-26 12:39:00,77.8,66.4,30.10,SW,222,2.0,5.0,68,0.00,,CLR,0.00,VWS V14.01,2013-08-26 16:39:00,
2013-08-26 12:44:00,78.2,67.2,30.10,SW,224,1.0,7.0,69,0.00,,CLR,0.00,VWS V14.01,2013-08-26 16:44:00,
2013-08-26 12:49:00,79.2,67.7,30.10,West,269,1.0,6.0,68,0.00,,CLR,0.00,VWS V14.01,2013-08-26 16:49:00,
2013-08-26 12:54:00,80.0,68.9,30.10,WSW,254,4.0,7.0,69,0.00,,CLR,0.00,VWS V14.01,2013-08-26 16:54:00,
2013-08-26 12:59:00,80.4,68.0,30.09,SW,236,5.0,9.0,66,0.00,,CLR,0.00,VWS V14.01,2013-08-26 16:59:00,
2013-08-26 13:04:00,81.0,68.1,30.09,SW,224,5.0,7.0,65,0.00,,FEW065,0.00,VWS V14.01,2013-08-26 17:04:00,
2013-08-26 13:09:00,81.4,67.1,30.09,WSW,258,4.0,7.0,62,0.00,,FEW065,0.00,VWS V14.01,2013-08-26 17:09:00,
2013-08-26 13:14:00,81.2,66.0,30.09,NW,316,6.0,10.0,60,0.00,,FEW065,0.00,VWS V14.01,2013-08-26 17:14:00,
2013-08-26 13:19:00,80.8,66.6,30.08,WSW,256,3.0,9.0,62,0.00,,FEW065,0.00,VWS V14.01,2013-08-26 17:19:00,
2013-08-26 13:24:00,80.7,66.5,30.08,WSW,245,2.0,8.0,62,0.00,,FEW065,0.00,VWS V14.01,2013-08-26 17:24:00,
2013-08-26 13:29:00,80.7,66.9,30.08,WSW,250,3.0,6.0,63,0.00,,FEW065,0.00,VWS V14.01,2013-08-26 17:29:00,
2013-08-26 13:35:00,80.9,67.1,30.08,West,276,4.0,9.0,63,0.00,,FEW065,0.00,VWS V14.01,2013-08-26 17:35:00,
2013-08-26 13:40:00,80.6,66.8,30.07,WNW,287,3.0,5.0,63,0.00,,FEW065,0.00,VWS V14.01,2013-08-26 17:40:00,
2013-08-26 13:45:00,80.6,67.8,30.07,West,271,3.0,4.0,65,0.00,,FEW065,0.00,VWS V14.01,2013-08-26 17:45:00,
2013-08-26 13:50:00,80.7,67.8,30.06,WNW,287,3.0,7.0,65,0.00,,FEW065,0.00,VWS V14.01,2013-08-26 17:50:00,
2013-08-26 13:55:00,80.8,67.0,30.06,WNW,297,6.0,10.0,63,0.00,,FEW065,0.00,VWS V14.01,2013-08-26 17:55:00,
2013-08-26 14:00:00,80.3,67.0,30.06,WSW,257,0.0,8.0,64,0.00,,FEW065,0.00,VWS V14.01,2013-08-26 18:00:00,
2013-08-26 14:05:00,80.3,66.6,30.06,WSW,245,4.0,7.0,63,0.00,,CLR,0.00,VWS V14.01,2013-08-26 18:05:00,
2013-08-26 14:10:00,80.4,67.1,30.05,WSW,240,4.0,10.0,64,0.00,,CLR,0.00,VWS V14.01,2013-08-26 18:10:00,
2013-08-26 14:15:00,80.3,67.0,30.05,SW,236,2.0,8.0,64,0.00,,CLR,0.00,VWS V14.01,2013-08-26 18:15:00,
2013-08-26 14:20:00,80.2,67.4,30.05,SW,225,1.0,7.0,65,0.00,,CLR,0.00,VWS V14.01,2013-08-26 18:20:00,
2013-08-26 14:25:00,80.8,67.9,30.04,South,169,5.0,5.0,65,0.00,,CLR,0.00,VWS V14.01,2013-08-26 18:25:00,
2013-08-26 14:30:00,81.6,67.8,30.03,South,183,10.0,10.0,63,0.00,,CLR,0.00,VWS V14.01,2013-08-26 18:30:00,
2013-08-26 14:35:00,82.3,68.0,30.03,SW,234,4.0,4.0,62,0.00,,CLR,0.00,VWS V14.01,2013-08-26 18:35:00,
2013-08-26 14:40:00,81.9,67.6,30.03,WSW,240,5.0,7.0,62,0.00,,CLR,0.00,VWS V14.01,2013-08-26 18:40:00,
2013-08-26 14:45:00,81.7,67.9,30.02,ESE,115,3.0,4.0,63,0.00,,CLR,0.00,VWS V14.01,2013-08-26 18:45:00,
2013-08-26 14:50:00,81.5,68.2,30.02,SSW,194,5.0,8.0,64,0.00,,CLR,0.00,VWS V14.01,2013-08-26 18:50:00,
2013-08-26 14:55:00,81.5,68.6,30.02,WSW,243,2.0,3.0,65,0.00,,CLR,0.00,VWS V14.01,2013-08-26 18:55:00,
2013-08-26 15:00:00,82.0,69.1,30.02,SW,229,2.0,4.0,65,0.00,,CLR,0.00,VWS V14.01,2013-08-26 19:00:00,
2013-08-26 15:05:00,81.9,68.5,30.02,WSW,246,1.0,7.0,64,0.00,,FEW080,0.00,VWS V14.01,2013-08-26 19:05:00,
2013-08-26 15:10:00,82.3,69.8,30.02,West,281,2.0,6.0,66,0.00,,FEW080,0.00,VWS V14.01,2013-08-26 19:10:00,
2013-08-26 15:16:00,82.5,67.7,30.02,SW,219,4.0,9.0,61,0.00,,FEW080,0.00,VWS V14.01,2013-08-26 19:16:00,
2013-08-26 15:21:00,82.5,67.7,30.01,WSW,246,4.0,11.0,61,0.00,,FEW080,0.00,VWS V14.01,2013-08-26 19:21:00,
2013-08-26 15:26:00,82.8,68.5,30.01,West,276,5.0,10.0,62,0.00,,FEW080,0.00,VWS V14.01,2013-08-26 19:26:00,
2013-08-26 15:31:00,83.2,68.4,30.00,WSW,253,3.0,9.0,61,0.00,,FEW080,0.00,VWS V14.01,2013-08-26 19:31:00,
2013-08-26 15:36:00,83.2,68.8,30.00,West,269,5.0,7.0,62,0.00,,FEW080,0.00,VWS V14.01,2013-08-26 19:36:00,
2013-08-26 15:41:00,83.6,69.2,30.00,SSW,207,2.0,5.0,62,0.00,,FEW080,0.00,VWS V14.01,2013-08-26 19:41:00,
2013-08-26 15:46:00,83.8,68.9,29.99,WSW,253,9.0,9.0,61,0.00,,FEW080,0.00,VWS V14.01,2013-08-26 19:46:00,
2013-08-26 15:51:00,83.6,67.8,29.99,WSW,240,4.0,12.0,59,0.00,,FEW080,0.00,VWS V14.01,2013-08-26 19:51:00,
2013-08-26 15:56:00,83.3,67.5,29.99,WSW,249,8.0,8.0,59,0.00,,FEW080,0.00,VWS V14.01,2013-08-26 19:56:00,
2013-08-26 16:01:00,83.4,68.1,29.99,WSW,241,5.0,8.0,60,0.00,,FEW080,0.00,VWS V14.01,2013-08-26 20:01:00,
2013-08-26 16:06:00,83.3,68.0,29.98,WSW,246,7.0,9.0,60,0.00,,CLR,0.00,VWS V14.01,2013-08-26 20:06:00,
2013-08-26 16:12:00,83.5,68.2,29.98,SW,228,5.0,8.0,60,0.00,,CLR,0.00,VWS V14.01,2013-08-26 20:12:00,
2013-08-26 16:17:00,83.6,68.3,29.99,West,274,5.0,8.0,60,0.00,,CLR,0.00,VWS V14.01,2013-08-26 20:17:00,
2013-08-26 16:22:00,84.0,68.6,29.98,WSW,253,7.0,8.0,60,0.00,,CLR,0.00,VWS V14.01,2013-08-26 20:22:00,
2013-08-26 16:27:00,84.2,69.3,29.98,West,278,5.0,7.0,61,0.00,,CLR,0.00,VWS V14.01,2013-08-26 20:27:00,
2013-08-26 16:32:00,84.1,68.7,29.98,WNW,293,4.0,8.0,60,0.00,,CLR,0.00,VWS V14.01,2013-08-26 20:32:00,
2013-08-26 16:37:00,83.8,68.4,29.98,West,276,2.0,6.0,60,0.00,,CLR,0.00,VWS V14.01,2013-08-26 20:37:00,
2013-08-26 16:42:00,84.0,68.6,29.98,WSW,255,1.0,5.0,60,0.00,,CLR,0.00,VWS V14.01,2013-08-26 20:42:00,
2013-08-26 16:47:00,83.9,68.5,29.98,West,267,4.0,10.0,60,0.00,,CLR,0.00,VWS V14.01,2013-08-26 20:47:00,
2013-08-26 16:52:00,83.8,68.4,29.97,NW,325,6.0,13.0,60,0.00,,CLR,0.00,VWS V14.01,2013-08-26 20:52:00,
2013-08-26 16:57:00,83.5,68.2,29.97,WSW,252,5.0,9.0,60,0.00,,CLR,0.00,VWS V14.01,2013-08-26 20:57:00,
2013-08-26 17:02:00,83.3,68.9,29.97,West,268,3.0,9.0,62,0.00,,CLR,0.00,VWS V14.01,2013-08-26 21:02:00,
2013-08-26 17:08:00,83.0,68.7,29.97,SW,235,2.0,7.0,62,0.00,,CLR,0.00,VWS V14.01,2013-08-26 21:08:00,
2013-08-26 17:13:00,82.7,68.4,29.96,West,280,3.0,9.0,62,0.00,,CLR,0.00,VWS V14.01,2013-08-26 21:13:00,
2013-08-26 17:18:00,82.5,68.2,29.96,SW,234,3.0,9.0,62,0.00,,CLR,0.00,VWS V14.01,2013-08-26 21:18:00,
2013-08-26 17:23:00,82.5,69.1,29.97,SSW,203,1.0,7.0,64,0.00,,CLR,0.00,VWS V14.01,2013-08-26 21:23:00,
2013-08-26 17:28:00,82.6,68.7,29.96,West,273,1.0,10.0,63,0.00,,CLR,0.00,VWS V14.01,2013-08-26 21:28:00,
2013-08-26 17:33:00,82.9,69.0,29.96,SW,234,7.0,7.0,63,0.00,,CLR,0.00,VWS V14.01,2013-08-26 21:33:00,
2013-08-26 17:38:00,82.7,68.8,29.96,WSW,253,7.0,7.0,63,0.00,,CLR,0.00,VWS V14.01,2013-08-26 21:38:00,
2013-08-26 17:43:00,82.5,68.2,29.96,SW,232,6.0,8.0,62,0.00,,CLR,0.00,VWS V14.01,2013-08-26 21:43:00,
2013-08-26 17:48:00,82.4,68.6,29.96,WSW,241,5.0,7.0,63,0.00,,CLR,0.00,VWS V14.01,2013-08-26 21:48:00,
2013-08-26 17:53:00,82.6,68.7,29.96,West,268,1.0,4.0,63,0.00,,CLR,0.00,VWS V14.01,2013-08-26 21:53:00,
2013-08-26 17:58:00,82.6,68.7,29.96,WSW,253,4.0,5.0,63,0.00,,CLR,0.00,VWS V14.01,2013-08-26 21:58:00,
2013-08-26 18:04:00,82.1,68.3,29.96,WSW,255,5.0,6.0,63,0.00,,CLR,0.00,VWS V14.01,2013-08-26 22:04:00,
2013-08-26 18:09:00,81.6,68.2,29.96,WNW,285,1.0,7.0,64,0.00,,CLR,0.00,VWS V14.01,2013-08-26 22:09:00,
2013-08-26 18:14:00,81.2,68.3,29.95,WSW,245,2.0,8.0,65,0.00,,CLR,0.00,VWS V14.01,2013-08-26 22:14:00,
2013-08-26 18:19:00,80.8,67.9,29.95,WSW,244,2.0,6.0,65,0.00,,CLR,0.00,VWS V14.01,2013-08-26 22:19:00,
2013-08-26 18:24:00,80.6,68.2,29.95,SW,232,3.0,4.0,66,0.00,,CLR,0.00,VWS V14.01,2013-08-26 22:24:00,
2013-08-26 18:29:00,80.3,67.9,29.95,SSW,208,2.0,3.0,66,0.00,,CLR,0.00,VWS V14.01,2013-08-26 22:29:00,
2013-08-26 18:34:00,80.1,68.6,29.95,SW,217,2.0,4.0,68,0.00,,CLR,0.00,VWS V14.01,2013-08-26 22:34:00,
2013-08-26 18:39:00,79.8,68.3,29.95,SSW,210,0.0,3.0,68,0.00,,CLR,0.00,VWS V14.01,2013-08-26 22:39:00,
2013-08-26 18:44:00,79.5,68.0,29.95,SW,226,1.0,3.0,68,0.00,,CLR,0.00,VWS V14.01,2013-08-26 22:44:00,
2013-08-26 18:49:00,79.3,68.3,29.95,WSW,244,2.0,5.0,69,0.00,,CLR,0.00,VWS V14.01,2013-08-26 22:49:00,
2013-08-26 18:54:00,79.2,68.2,29.95,WSW,240,0.0,6.0,69,0.00,,CLR,0.00,VWS V14.01,2013-08-26 22:54:00,
2013-08-26 19:00:00,79.0,68.0,29.95,WSW,240,0.0,4.0,69,0.00,,CLR,0.00,VWS V14.01,2013-08-26 23:00:00,
2013-08-26 19:05:00,78.8,68.2,29.95,WSW,238,2.0,4.0,70,0.00,,CLR,0.00,VWS V14.01,2013-08-26 23:05:00,
2013-08-26 19:10:00,78.6,68.0,29.95,South,179,0.0,3.0,70,0.00,,CLR,0.00,VWS V14.01,2013-08-26 23:10:00,
2013-08-26 19:15:00,78.4,67.8,29.94,SSE,158,0.0,6.0,70,0.00,,CLR,0.00,VWS V14.01,2013-08-26 23:15:00,
2013-08-26 19:20:00,78.3,67.7,29.94,WSW,240,1.0,4.0,70,0.00,,CLR,0.00,VWS V14.01,2013-08-26 23:20:00,
2013-08-26 19:25:00,78.1,67.5,29.94,SSE,167,0.0,4.0,70,0.00,,CLR,0.00,VWS V14.01,2013-08-26 23:25:00,
2013-08-26 19:30:00,77.9,67.3,29.94,South,172,0.0,1.0,70,0.00,,CLR,0.00,VWS V14.01,2013-08-26 23:30:00,
2013-08-26 19:35:00,77.9,67.3,29.94,SW,225,0.0,5.0,70,0.00,,CLR,0.00,VWS V14.01,2013-08-26 23:35:00,
2013-08-26 19:40:00,77.9,66.9,29.94,SSE,167,1.0,6.0,69,0.00,,CLR,0.00,VWS V14.01,2013-08-26 23:40:00,
2013-08-26 19:45:00,77.9,66.9,29.94,South,190,2.0,6.0,69,0.00,,CLR,0.00,VWS V14.01,2013-08-26 23:45:00,
2013-08-26 19:50:00,77.9,66.9,29.94,WSW,250,1.0,6.0,69,0.00,,CLR,0.00,VWS V14.01,2013-08-26 23:50:00,
2013-08-26 19:55:00,77.7,66.7,29.94,SSW,207,0.0,4.0,69,0.00,,CLR,0.00,VWS V14.01,2013-08-26 23:55:00,
2013-08-26 20:00:00,77.5,66.9,29.94,SSW,197,0.0,3.0,70,0.00,,CLR,0.00,VWS V14.01,2013-08-27 00:00:00,
2013-08-26 20:05:00,77.4,66.9,29.94,SW,232,1.0,3.0,70,0.00,,CLR,0.00,VWS V14.01,2013-08-27 00:05:00,
2013-08-26 20:10:00,77.2,67.1,29.95,SW,217,0.0,3.0,71,0.00,,CLR,0.00,VWS V14.01,2013-08-27 00:10:00,
2013-08-26 20:15:00,77.0,66.9,29.95,SSE,155,1.0,2.0,71,0.00,,CLR,0.00,VWS V14.01,2013-08-27 00:15:00,
2013-08-26 20:20:00,76.9,67.2,29.95,SSW,197,3.0,3.0,72,0.00,,CLR,0.00,VWS V14.01,2013-08-27 00:20:00,
2013-08-26 20:25:00,76.7,67.0,29.95,South,187,2.0,3.0,72,0.00,,CLR,0.00,VWS V14.01,2013-08-27 00:25:00,
2013-08-26 20:30:00,76.6,67.3,29.95,SSW,200,1.0,4.0,73,0.00,,CLR,0.00,VWS V14.01,2013-08-27 00:30:00,
2013-08-26 20:35:00,76.6,67.3,29.95,WSW,250,2.0,4.0,73,0.00,,CLR,0.00,VWS V14.01,2013-08-27 00:35:00,
2013-08-26 20:40:00,76.5,67.2,29.95,South,176,2.0,4.0,73,0.00,,CLR,0.00,VWS V14.01,2013-08-27 00:40:00,
2013-08-26 20:45:00,76.5,67.6,29.95,SSE,152,3.0,4.0,74,0.00,,CLR,0.00,VWS V14.01,2013-08-27 00:45:00,
2013-08-26 20:50:00,76.5,67.6,29.95,South,180,0.0,6.0,74,0.00,,CLR,0.00,VWS V14.01,2013-08-27 00:50:00,
2013-08-26 20:55:00,76.4,67.5,29.94,SSE,160,0.0,5.0,74,0.00,,CLR,0.00,VWS V14.01,2013-08-27 00:55:00,
2013-08-26 21:00:00,76.4,67.5,29.95,South,169,2.0,6.0,74,0.00,,CLR,0.00,VWS V14.01,2013-08-27 01:00:00,
2013-08-26 21:05:00,76.4,67.5,29.95,SSE,159,0.0,4.0,74,0.00,,CLR,0.00,VWS V14.01,2013-08-27 01:05:00,
2013-08-26 21:10:00,76.4,67.5,29.95,WSW,245,1.0,6.0,74,0.00,,CLR,0.00,VWS V14.01,2013-08-27 01:10:00,
2013-08-26 21:15:00,76.5,67.6,29.95,SSW,200,2.0,3.0,74,0.00,,CLR,0.00,VWS V14.01,2013-08-27 01:15:00,
2013-08-26 21:20:00,76.6,67.3,29.95,SW,225,1.0,8.0,73,0.00,,CLR,0.00,VWS V14.01,2013-08-27 01:20:00,
2013-08-26 21:25:00,76.8,67.5,29.95,SSW,212,1.0,9.0,73,0.00,,CLR,0.00,VWS V14.01,2013-08-27 01:25:00,
2013-08-26 21:30:00,76.9,67.2,29.95,SW,228,2.0,6.0,72,0.00,,CLR,0.00,VWS V14.01,2013-08-27 01:30:00,
2013-08-26 21:35:00,76.9,67.2,29.95,WSW,253,5.0,6.0,72,0.00,,CLR,0.00,VWS V14.01,2013-08-27 01:35:00,
2013-08-26 21:40:00,77.0,67.3,29.95,WSW,238,5.0,9.0,72,0.00,,CLR,0.00,VWS V14.01,2013-08-27 01:40:00,
2013-08-26 21:45:00,77.0,67.3,29.95,SW,226,7.0,9.0,72,0.00,,CLR,0.00,VWS V14.01,2013-08-27 01:45:00,
2013-08-26 21:50:00,77.0,67.3,29.95,SSW,210,2.0,8.0,72,0.00,,CLR,0.00,VWS V14.01,2013-08-27 01:50:00,
2013-08-26 21:55:00,76.9,67.2,29.95,SW,228,1.0,5.0,72,0.00,,CLR,0.00,VWS V14.01,2013-08-27 01:55:00,
2013-08-26 22:00:00,76.6,67.3,29.95,West,259,2.0,3.0,73,0.00,,CLR,0.00,VWS V14.01,2013-08-27 02:00:00,
2013-08-26 22:05:00,76.4,67.1,29.95,WSW,238,2.0,5.0,73,0.00,,CLR,0.00,VWS V14.01,2013-08-27 02:05:00,
2013-08-26 22:10:00,76.4,67.1,29.95,West,280,0.0,4.0,73,0.00,,CLR,0.00,VWS V14.01,2013-08-27 02:10:00,
2013-08-26 22:15:00,76.3,67.0,29.95,WSW,244,3.0,5.0,73,0.00,,CLR,0.00,VWS V14.01,2013-08-27 02:15:00,
2013-08-26 22:20:00,76.5,67.2,29.95,West,274,1.0,1.0,73,0.00,,CLR,0.00,VWS V14.01,2013-08-27 02:20:00,
2013-08-26 22:25:00,76.5,67.2,29.95,SW,236,0.0,0.0,73,0.00,,CLR,0.00,VWS V14.01,2013-08-27 02:25:00,
2013-08-26 22:30:00,76.6,66.9,29.95,SW,229,2.0,2.0,72,0.00,,CLR,0.00,VWS V14.01,2013-08-27 02:30:00,
2013-08-26 22:35:00,76.6,67.3,29.95,SW,226,0.0,0.0,73,0.00,,CLR,0.00,VWS V14.01,2013-08-27 02:35:00,
2013-08-26 22:40:00,76.5,67.2,29.94,West,276,0.0,1.0,73,0.00,,CLR,0.00,VWS V14.01,2013-08-27 02:40:00,
2013-08-26 22:45:00,76.4,67.1,29.94,WNW,284,2.0,2.0,73,0.00,,CLR,0.00,VWS V14.01,2013-08-27 02:45:00,
2013-08-26 22:50:00,76.7,67.4,29.94,WSW,257,1.0,1.0,73,0.00,,CLR,0.00,VWS V14.01,2013-08-27 02:50:00,
2013-08-26 22:55:00,76.7,67.0,29.93,WSW,256,0.0,1.0,72,0.00,,CLR,0.00,VWS V14.01,2013-08-27 02:55:00,
2013-08-26 23:00:00,77.0,67.3,29.93,West,276,1.0,4.0,72,0.00,,CLR,0.00,VWS V14.01,2013-08-27 03:00:00,
2013-08-26 23:05:00,77.1,67.0,29.93,WSW,257,0.0,2.0,71,0.00,,FEW085,0.00,VWS V14.01,2013-08-27 03:05:00,
2013-08-26 23:11:00,77.1,67.0,29.93,WSW,243,0.0,2.0,71,0.00,,FEW085,0.00,VWS V14.01,2013-08-27 03:11:00,
2013-08-26 23:16:00,76.9,67.2,29.93,WSW,257,0.0,0.0,72,0.00,,FEW085,0.00,VWS V14.01,2013-08-27 03:16:00,
2013-08-26 23:21:00,76.7,67.0,29.93,West,273,0.0,1.0,72,0.00,,FEW085,0.00,VWS V14.01,2013-08-27 03:21:00,
2013-08-26 23:26:00,76.6,66.9,29.93,West,267,0.0,0.0,72,0.00,,FEW085,0.00,VWS V14.01,2013-08-27 03:26:00,
2013-08-26 23:31:00,76.4,67.1,29.92,SW,232,0.0,0.0,73,0.00,,FEW085,0.00,VWS V14.01,2013-08-27 03:31:00,
2013-08-26 23:36:00,76.2,66.9,29.92,WSW,252,0.0,1.0,73,0.00,,FEW085,0.00,VWS V14.01,2013-08-27 03:36:00,
2013-08-26 23:41:00,76.2,66.9,29.92,WNW,284,0.0,0.0,73,0.00,,FEW085,0.00,VWS V14.01,2013-08-27 03:41:00,
2013-08-26 23:46:00,76.4,66.7,29.92,WSW,255,0.0,1.0,72,0.00,,FEW085,0.00,VWS V14.01,2013-08-27 03:46:00,
2013-08-26 23:51:00,76.4,67.1,29.92,WSW,250,0.0,1.0,73,0.00,,FEW085,0.00,VWS V14.01,2013-08-27 03:51:00,
2013-08-26 23:56:00,76.2,67.3,29.92,WNW,286,0.0,1.0,74,0.00,,FEW085,0.00,VWS V14.01,2013-08-27 03:56:00,